Weather History for KLGA - November, 2011

Change the Weather History Date:

Wednesday, November 9, 2011

  Actual Average Record
Temperature  
Mean Temperature 57 °F 50 °F  
Max Temperature 64 °F 57 °F 72 °F (1986)
Min Temperature 49 °F 44 °F 27 °F (1971)
Degree Days  
Heating Degree Days 8 15  
Month to date heating degree days 121 121  
Since 1 July heating degree days 363 393  
Cooling Degree Days 0 0  
Month to date cooling degree days 0 0  
Year to date cooling degree days 1375 1213  
Growing Degree Days 6 (Base 50)    
Moisture  
Dew Point 49 °F    
Average Humidity 74    
Maximum Humidity 100    
Minimum Humidity 48    
Precipitation  
Precipitation 0.00 in 0.10 in 0.77 in (1997)
Month to date precipitation 0.00 1.00  
Year to date precipitation 58.57 38.76  
Snow  
Snow 0.00 in 0.00 in T in (1967)
Month to date snowfall 0.0 0.0  
Since 1 July snowfall 1.7 0.0  
Snow Depth 0.00 in    
Sea Level Pressure  
Sea Level Pressure 30.15 in    
Wind  
Wind Speed 6 mph (ESE)    
Max Wind Speed 17 mph    
Max Gust Speed 23 mph    
Visibility 5 miles    
Events Fog    
T = Trace of Precipitation, MM = Missing Value Source: NWS Daily Summary

Daily Weather History Graph

Daily Weather History Graph

Search for Another Location

Airport or City:

Trip Planner

Search our weather history database for the weather conditions in past years. The results will help you decide how hot, cold, wet, or windy it might be!

Date:

Astronomy

Nov. 09, 2011 Rise Set
Actual Time 6:35 AM EST 4:43 PM EST
Civil Twilight 6:06 AM EST 5:12 PM EST
Nautical Twilight 5:33 AM EST 5:44 PM EST
Astronomical Twilight 5:01 AM EST 6:16 PM EST
Moon 3:53 PM EST (11/9) 5:28 AM EST (11/9)
Length of Visible Light 11h 05m
Length of Day
10h 08m
Waxing Gibbous, 99% of the Moon is Illuminated
Nov 9
Waxing Gibbous
Nov 10
Full
Nov 18
Last Quarter
Nov 25
New
Dec 2
First Quarter

Hourly Weather History & Observations

Time (EST) Temp. Dew Point Humidity Pressure Visibility Wind Dir Wind Speed Gust Speed Precip Events Conditions
12:51 AM 53.1 °F 48.0 °F 83% 30.21 in 8.0 mi East 3.5 mph - N/A   Clear
1:51 AM 53.1 °F 48.0 °F 83% 30.19 in 6.0 mi ESE 3.5 mph - N/A   Haze
2:51 AM 52.0 °F 48.0 °F 86% 30.20 in 6.0 mi Calm Calm - N/A   Clear
3:51 AM 51.1 °F 48.0 °F 89% 30.19 in 3.0 mi ESE 3.5 mph - N/A   Clear
4:51 AM 50.0 °F 48.0 °F 93% 30.19 in 4.0 mi Calm Calm - N/A   Clear
5:51 AM 48.9 °F 46.9 °F 93% 30.19 in 6.0 mi East 3.5 mph - N/A   Clear
6:37 AM 51.8 °F 48.2 °F 88% 30.19 in 1.0 mi North 3.5 mph - N/A   Clear
6:39 AM 50.0 °F 48.2 °F 94% 30.19 in 0.5 mi Calm Calm - N/A Fog Fog
6:46 AM 50.0 °F 48.2 °F 94% 30.20 in 0.5 mi Calm Calm - N/A Fog Fog
6:49 AM 50.0 °F 48.2 °F 94% 30.20 in 1.0 mi Calm Calm - N/A   Clear
6:51 AM 50.0 °F 48.0 °F 93% 30.20 in 0.8 mi Calm Calm - N/A   Clear
6:58 AM 50.0 °F 48.2 °F 94% 30.20 in 0.5 mi ENE 4.6 mph - N/A Fog Fog
7:02 AM 50.0 °F 48.2 °F 94% 30.20 in 1.0 mi Calm Calm - N/A   Mist
7:06 AM 50.0 °F 48.2 °F 94% 30.20 in 1.5 mi NE 3.5 mph - N/A   Clear
7:14 AM 50.0 °F 48.2 °F 94% 30.21 in 2.5 mi NE 3.5 mph - N/A   Clear
7:27 AM 51.8 °F 48.2 °F 88% 30.21 in 1.2 mi NE 5.8 mph - N/A   Partly Cloudy
7:29 AM 50.0 °F 48.2 °F 94% 30.21 in 0.5 mi NE 5.8 mph - N/A Fog Fog
7:32 AM 50.0 °F 48.2 °F 94% 30.21 in 0.2 mi NE 5.8 mph - N/A Fog Fog
7:47 AM 50.0 °F 48.2 °F 94% 30.21 in 0.2 mi NE 6.9 mph - N/A Fog Fog
7:48 AM 50.0 °F 48.9 °F 96% 30.21 in 0.2 mi NE 6.9 mph - N/A Fog Fog
8:41 AM 50.0 °F 48.2 °F 94% 30.20 in 0.2 mi NE 4.6 mph - N/A Fog Fog
8:51 AM 50.0 °F 48.9 °F 96% 30.20 in 0.2 mi ENE 4.6 mph - N/A Fog Fog
9:51 AM 51.1 °F 51.1 °F 100% 30.19 in 0.5 mi ENE 4.6 mph - N/A Fog Fog
9:54 AM 51.8 °F 51.8 °F 100% 30.19 in 1.5 mi ENE 4.6 mph - N/A   Mostly Cloudy
10:14 AM 51.8 °F 48.2 °F 88% 30.19 in 1.5 mi NE 6.9 mph - N/A   Scattered Clouds
10:17 AM 50.0 °F 48.2 °F 94% 30.19 in 2.0 mi NE 8.1 mph - N/A   Mostly Cloudy
10:28 AM 51.8 °F 50.0 °F 94% 30.19 in 2.0 mi NE 5.8 mph - N/A   Scattered Clouds
10:35 AM 51.8 °F 50.0 °F 94% 30.19 in 3.0 mi NE 4.6 mph - N/A   Partly Cloudy
10:51 AM 57.0 °F 48.9 °F 74% 30.19 in 8.0 mi South 6.9 mph - N/A   Clear
11:51 AM 63.0 °F 43.0 °F 48% 30.15 in 10.0 mi South 4.6 mph - N/A   Clear
12:51 PM 63.0 °F 44.1 °F 50% 30.13 in 10.0 mi SSW 9.2 mph - N/A   Clear
1:51 PM 62.1 °F 45.0 °F 53% 30.11 in 10.0 mi SSW 11.5 mph - N/A   Partly Cloudy
2:51 PM 62.1 °F 46.9 °F 58% 30.09 in 10.0 mi South 12.7 mph - N/A   Scattered Clouds
3:51 PM 61.0 °F 46.9 °F 60% 30.09 in 10.0 mi South 10.4 mph 20.7 mph N/A   Scattered Clouds
4:51 PM 57.9 °F 48.9 °F 72% 30.09 in 10.0 mi SE 10.4 mph - N/A   Scattered Clouds
5:51 PM 57.0 °F 50.0 °F 77% 30.09 in 10.0 mi South 9.2 mph - N/A   Scattered Clouds
6:13 PM 57.2 °F 50.0 °F 77% 30.09 in 10.0 mi SSE 6.9 mph - N/A   Mostly Cloudy
6:51 PM 57.9 °F 50.0 °F 75% 30.08 in 10.0 mi SE 6.9 mph - N/A   Overcast
7:27 PM 57.2 °F 51.8 °F 82% 30.07 in 10.0 mi SSE 8.1 mph - N/A   Mostly Cloudy
7:43 PM 57.2 °F 51.8 °F 82% 30.07 in 10.0 mi SSE 6.9 mph - N/A   Scattered Clouds
7:51 PM 55.9 °F 51.1 °F 84% 30.07 in 10.0 mi SSE 4.6 mph - N/A   Scattered Clouds
8:08 PM 55.4 °F 51.8 °F 88% 30.07 in 9.0 mi SSE 8.1 mph - N/A   Overcast
8:42 PM 57.2 °F 53.6 °F 88% 30.06 in 5.0 mi Variable 4.6 mph - N/A   Overcast
8:51 PM 57.9 °F 54.0 °F 87% 30.06 in 5.0 mi Variable 3.5 mph - N/A   Overcast
9:51 PM 57.0 °F 54.0 °F 89% 30.03 in 7.0 mi ESE 6.9 mph - N/A   Mostly Cloudy
9:58 PM 57.2 °F 53.6 °F 88% 30.03 in 8.0 mi SE 5.8 mph - N/A   Mostly Cloudy
10:51 PM 57.0 °F 54.0 °F 89% 30.02 in 10.0 mi SE 5.8 mph - N/A   Mostly Cloudy
11:51 PM 57.9 °F 55.0 °F 90% 30.01 in 10.0 mi South 3.5 mph - N/A   Mostly Cloudy